<?xml version="1.0"?>
<gpx xmlns="http://www.topografix.com/GPX/1/1" xmlns:xsi="http://www.w3.org/2001/XMLSchema-instance" version="1.1" creator="GPX RubyGem 1.0.0 -- http://dougfales.github.io/gpx/" xsi:schemaLocation="http://www.topografix.com/GPX/1/1 http://www.topografix.com/GPX/1/1/gpx.xsd">
  <metadata>
    <name/>
    <time>2026-05-09T21:40:19+00:00</time>
    <bound minlat="90.0" minlon="180.0" maxlat="-90.0" maxlon="-180.0"/>
  </metadata>
  <trk>
    <name/>
    <trkseg>
      <trkpt lat="51.665188" lon="11.148067">
        <time>1970-01-01T00:00:00+00:00</time>
        <ele>284.0</ele>
      </trkpt>
      <trkpt lat="51.665155" lon="11.147999">
        <time>1970-01-01T00:00:00+00:00</time>
        <ele>285.0</ele>
      </trkpt>
      <trkpt lat="51.665061" lon="11.147829">
        <time>1970-01-01T00:00:00+00:00</time>
        <ele>290.0</ele>
      </trkpt>
      <trkpt lat="51.664928" lon="11.147594">
        <time>1970-01-01T00:00:00+00:00</time>
        <ele>299.0</ele>
      </trkpt>
      <trkpt lat="51.66495" lon="11.147574">
        <time>1970-01-01T00:00:00+00:00</time>
        <ele>298.0</ele>
      </trkpt>
      <trkpt lat="51.6648" lon="11.14728">
        <time>1970-01-01T00:00:00+00:00</time>
        <ele>306.0</ele>
      </trkpt>
      <trkpt lat="51.664374" lon="11.147032">
        <time>1970-01-01T00:00:00+00:00</time>
        <ele>322.0</ele>
      </trkpt>
      <trkpt lat="51.663942" lon="11.147075">
        <time>1970-01-01T00:00:00+00:00</time>
        <ele>332.0</ele>
      </trkpt>
      <trkpt lat="51.663262" lon="11.147601">
        <time>1970-01-01T00:00:00+00:00</time>
        <ele>345.0</ele>
      </trkpt>
      <trkpt lat="51.662745" lon="11.147601">
        <time>1970-01-01T00:00:00+00:00</time>
        <ele>347.0</ele>
      </trkpt>
      <trkpt lat="51.662262" lon="11.147613">
        <time>1970-01-01T00:00:00+00:00</time>
        <ele>348.0</ele>
      </trkpt>
      <trkpt lat="51.6623" lon="11.147821">
        <time>1970-01-01T00:00:00+00:00</time>
        <ele>347.0</ele>
      </trkpt>
      <trkpt lat="51.662203" lon="11.147969">
        <time>1970-01-01T00:00:00+00:00</time>
        <ele>350.0</ele>
      </trkpt>
      <trkpt lat="51.661973" lon="11.14818">
        <time>1970-01-01T00:00:00+00:00</time>
        <ele>356.0</ele>
      </trkpt>
      <trkpt lat="51.661979" lon="11.148749">
        <time>1970-01-01T00:00:00+00:00</time>
        <ele>360.0</ele>
      </trkpt>
      <trkpt lat="51.661827" lon="11.149027">
        <time>1970-01-01T00:00:00+00:00</time>
        <ele>366.0</ele>
      </trkpt>
      <trkpt lat="51.661766" lon="11.149128">
        <time>1970-01-01T00:00:00+00:00</time>
        <ele>368.0</ele>
      </trkpt>
      <trkpt lat="51.661882" lon="11.149137">
        <time>1970-01-01T00:00:00+00:00</time>
        <ele>366.0</ele>
      </trkpt>
      <trkpt lat="51.662148" lon="11.149177">
        <time>1970-01-01T00:00:00+00:00</time>
        <ele>366.0</ele>
      </trkpt>
      <trkpt lat="51.662548" lon="11.14902">
        <time>1970-01-01T00:00:00+00:00</time>
        <ele>363.0</ele>
      </trkpt>
      <trkpt lat="51.663021" lon="11.148784">
        <time>1970-01-01T00:00:00+00:00</time>
        <ele>357.0</ele>
      </trkpt>
      <trkpt lat="51.66343" lon="11.148767">
        <time>1970-01-01T00:00:00+00:00</time>
        <ele>361.0</ele>
      </trkpt>
      <trkpt lat="51.663489" lon="11.148827">
        <time>1970-01-01T00:00:00+00:00</time>
        <ele>361.0</ele>
      </trkpt>
      <trkpt lat="51.663489" lon="11.148827">
        <time>1970-01-01T00:00:00+00:00</time>
        <ele>361.0</ele>
      </trkpt>
      <trkpt lat="51.66343" lon="11.148767">
        <time>1970-01-01T00:00:00+00:00</time>
        <ele>361.0</ele>
      </trkpt>
      <trkpt lat="51.663021" lon="11.148784">
        <time>1970-01-01T00:00:00+00:00</time>
        <ele>357.0</ele>
      </trkpt>
      <trkpt lat="51.662548" lon="11.14902">
        <time>1970-01-01T00:00:00+00:00</time>
        <ele>363.0</ele>
      </trkpt>
      <trkpt lat="51.662148" lon="11.149177">
        <time>1970-01-01T00:00:00+00:00</time>
        <ele>366.0</ele>
      </trkpt>
      <trkpt lat="51.661882" lon="11.149137">
        <time>1970-01-01T00:00:00+00:00</time>
        <ele>366.0</ele>
      </trkpt>
      <trkpt lat="51.661766" lon="11.149128">
        <time>1970-01-01T00:00:00+00:00</time>
        <ele>368.0</ele>
      </trkpt>
      <trkpt lat="51.661827" lon="11.149027">
        <time>1970-01-01T00:00:00+00:00</time>
        <ele>366.0</ele>
      </trkpt>
      <trkpt lat="51.661979" lon="11.148749">
        <time>1970-01-01T00:00:00+00:00</time>
        <ele>360.0</ele>
      </trkpt>
      <trkpt lat="51.661973" lon="11.14818">
        <time>1970-01-01T00:00:00+00:00</time>
        <ele>356.0</ele>
      </trkpt>
      <trkpt lat="51.662203" lon="11.147969">
        <time>1970-01-01T00:00:00+00:00</time>
        <ele>350.0</ele>
      </trkpt>
      <trkpt lat="51.6623" lon="11.147821">
        <time>1970-01-01T00:00:00+00:00</time>
        <ele>347.0</ele>
      </trkpt>
      <trkpt lat="51.662262" lon="11.147613">
        <time>1970-01-01T00:00:00+00:00</time>
        <ele>348.0</ele>
      </trkpt>
      <trkpt lat="51.662745" lon="11.147601">
        <time>1970-01-01T00:00:00+00:00</time>
        <ele>347.0</ele>
      </trkpt>
      <trkpt lat="51.663262" lon="11.147601">
        <time>1970-01-01T00:00:00+00:00</time>
        <ele>345.0</ele>
      </trkpt>
      <trkpt lat="51.663942" lon="11.147075">
        <time>1970-01-01T00:00:00+00:00</time>
        <ele>332.0</ele>
      </trkpt>
      <trkpt lat="51.664374" lon="11.147032">
        <time>1970-01-01T00:00:00+00:00</time>
        <ele>322.0</ele>
      </trkpt>
      <trkpt lat="51.6648" lon="11.14728">
        <time>1970-01-01T00:00:00+00:00</time>
        <ele>306.0</ele>
      </trkpt>
      <trkpt lat="51.66495" lon="11.147574">
        <time>1970-01-01T00:00:00+00:00</time>
        <ele>298.0</ele>
      </trkpt>
      <trkpt lat="51.664928" lon="11.147594">
        <time>1970-01-01T00:00:00+00:00</time>
        <ele>299.0</ele>
      </trkpt>
      <trkpt lat="51.665061" lon="11.147829">
        <time>1970-01-01T00:00:00+00:00</time>
        <ele>290.0</ele>
      </trkpt>
      <trkpt lat="51.665155" lon="11.147999">
        <time>1970-01-01T00:00:00+00:00</time>
        <ele>285.0</ele>
      </trkpt>
      <trkpt lat="51.665188" lon="11.148067">
        <time>1970-01-01T00:00:00+00:00</time>
        <ele>284.0</ele>
      </trkpt>
    </trkseg>
  </trk>
</gpx>
